Погода в Таврийске

Украина / Херсонская область     46°45′18″N   33°25′20″E
темп.,
°C
ветер,
м/с
пор.,
м/с
влажн.,
%
обл.,
%
осадки,
мм/ч
давл.,
гПа
погр.,
м
7 мая, пт
пт700:00+12ссз337489 0.0 1014125
03:00+11с469095 0.0 1015229
06:00+10ссв358499 0.0 1016140
09:00+14св44606 0.0 1017524
12:00+17в22425 0.0 1017973
15:00+20ю3441100 0.0 10151331
18:00+20ю464694 0.0 1013857
21:00+14ююв5107644 0.0 1014255
8 мая, сб
сб800:00+14ю4117382 0.0 1012284
03:00+13ююз31171100 0.0 1012369
06:00+13ююз41275100 0.0 1011397
09:00+16юз5107699 0.0 1012638
12:00+18сз8773100 0.1 1012990
15:00+12ссз71090100 3.1 1014672
18:00+11ссз3588100 5.0 1015285
21:00+12с3876100 7.6 1016568
9 мая, вс
вс900:00+10с61069100 0.1 1018528
03:00+8ссз7127799 0.1 1019447
06:00+7ссз713770 0.0 1021462
09:00+10ссз710580 0.0 10231141
12:00+14ссз68436 0.0 10241914
15:00+16ссз6736100 0.0 10242745
18:00+15с574197 0.0 10252509
21:00+12с46535 0.0 1027337
10 мая, пн
пн1000:00+10с46624 0.0 1028182
03:00+9ссв45705 0.0 1029154
06:00+9ссв46675 0.0 1029214
09:00+13св56520 0.0 10301168
12:00+15ссв67400 0.0 10291730
15:00+16св57380 0.0 10281773
18:00+16св57442 0.0 10262053
21:00+13с585470 0.0 1026441
11 мая, вт
вт1100:00+11ссв5962100 0.0 1026289
03:00+10с597097 0.0 1024231
06:00+11с61166100 0.0 1024414
09:00+13ссв796266 0.0 1023630
12:00+16ссв8961100 0.0 1022950
15:00+15ссв786995 0.0 1020861
18:00+15св81071100 0.1 10201115
21:00+14св3669100 0.1 1019401